sat.trackr.live / text

‹ back to catalog

STARLINK-33637

NORAD 63470 · 2025-070L

PAYLOAD ACTIVE UNKNOWN

§ Identity

Operator
Country
US
Launch date
2025-04-06
Launch site
AFETR
Launch vehicle
Mass (kg)
RCS (m²)

Purposes: comms

External: N2YO · Heavens-Above · Gunter

§ Orbital elements

Epoch: 2026-05-24T19:32:11.707296Z

Period
94.27 min
Inclination
42.9954°
Eccentricity
0.0000952
Mean motion
15.27586325 rev/d
Perigee alt
482.4 km
Apogee alt
483.7 km
Semi-major
6,861.2 km
B*
3.8016e-4
RAAN
190.3231°
Arg perigee
310.5276°
Mean anomaly
49.5493°
Rev number
6,461

§ Raw data

STARLINK-336371 63470U 25070L   26144.81402439  .00010216  00000+0  38016-3 0  99922 63470  42.9954 190.3231 0000952 310.5276  49.5493 15.27586325 64619

JSON: /api/v1/satellites/63470 · /tle

For live sub-satellite position, see the globe view (requires WebGL).

§ Visibility from observer

Set your observer location to see the next 7 days of passes ≥ 10°. The values pass through the URL so the page stays shareable.

No JS? Fill the form by hand. The geolocation button needs JavaScript.